Terminal Aerodrome Forecast
Issued by NWS

Home | Current Version | Previous Version | Text Only | Print | Product List | Glossary On
Versions: 1 2 3 4 5 6 7 8 9 10 11 12 13 14 15
000
FTUS43 KMQT 292330
TAFIWD
TAF
KIWD 292330Z 3000/3024 05006KT P6SM BKN200
     FM300300 09006KT P6SM BKN200
     FM301800 06010KT P6SM OVC080=

USA.gov is the U.S. government's official web portal to all federal, state and local government web resources and services.